#timestamp,LO_Frequency,Hit,StdDev 
1541710815.9,286046998.0,N
1541710835.7,286046997.3,N
1541710855.5,286046998.6,N
1541710875.4,286046996.5,N
1541710895.2,286046996.6,N
1541710915.1,286047001.0,N
1541710916.0,286047001.0,N
1541710935.8,286046999.8,N
1541710955.6,286047001.1,N
1541710975.5,286047000.2,N
1541710995.3,286046999.0,N
1541711015.1,286046999.3,N
1541711035.9,286046998.6,N
1541711055.7,286046997.3,N
1541711075.6,286046996.9,N
1541711095.4,286046999.4,N
1541711115.2,286047001.2,N
1541711135.1,286047001.2,N
1541711136.0,286047001.2,N
1541711155.8,286047001.1,N
1541711175.7,286047000.7,N
1541711195.5,286047000.9,N
1541711215.3,286047001.2,N
1541711235.2,286047000.9,N
1541711255.9,286047001.2,N
1541711275.7,286046998.4,N
1541711295.6,286046999.9,N
1541711315.4,286047002.4,N
1541711335.2,286047000.1,N
1541711355.1,286047000.8,N
1541711356.0,286047000.8,N
1541711375.8,286047000.4,N
1541711395.7,286047000.6,N
1541711415.5,286046999.7,N
1541711435.3,286047000.2,N
1541711455.2,286047001.1,N
1541711475.0,286046999.8,N
1541711475.9,286046999.8,N
1541711495.8,286047001.0,N
1541711515.6,286046999.9,N
1541711535.4,286047002.4,N
1541711555.3,286047002.7,N
1541711575.1,286047000.9,N
1541711595.8,286047000.6,N
1541711615.7,286047000.0,N
1541711635.5,286047011.9,Y
1541711655.4,286046998.5,P
1541711675.2,286046998.1,N
1541711695.0,286046999.8,N
1541711695.9,286046999.8,N
1541711715.8,286047000.3,N
1541711735.6,286047000.2,N
1541711755.4,286047001.4,N
1541711775.3,286047002.8,N
1541711795.1,286047002.7,N
1541711815.9,286047000.6,N
1541711835.7,286047001.4,N
1541711855.5,286047001.0,N
1541711875.4,286047004.3,Y
1541711895.2,286047001.7,P
1541711915.0,286047003.5,P
1541711915.9,286047003.5,N
1541711935.8,286047001.7,N
1541711955.6,286046999.7,N
1541711975.5,286047002.8,N
1541711995.3,286047002.5,N
1541712015.1,286047001.6,N
1541712035.9,286047002.7,N
1541712055.7,286046999.7,N
1541712075.5,286047000.9,N
1541712095.4,286047002.3,N
1541712115.2,286047002.1,N
1541712135.1,286047003.1,N
1541712136.0,286047003.1,N
1541712155.8,286047003.5,N
1541712175.6,286047004.0,Y
1541712195.5,286046999.1,P
1541712215.3,286047001.1,N
1541712235.1,286047002.8,N
1541712255.9,286047000.3,N
1541712275.7,286046998.4,N
1541712295.6,286046996.7,N
1541712315.4,286046997.4,N
1541712335.2,286046996.8,N
1541712355.1,286046996.6,N
1541712356.0,286046996.6,N
1541712375.8,286046999.2,N
1541712395.6,286046996.5,N
1541712415.5,286046996.9,N
1541712435.3,286046996.7,N
1541712455.2,286046997.4,N
1541712505.9,286047001.0,E
1541712515.8,286046998.6,N
1541712535.7,286046996.7,P
1541712555.5,286046997.1,P
1541712575.4,286046996.6,Y
1541712595.2,286047000.7,P
1541712615.0,286047000.8,N
1541712615.9,286047000.8,N
1541712635.8,286047000.5,N
1541712655.6,286046998.3,N
1541712675.5,286046999.3,N
1541712695.3,286047000.8,N
1541712715.1,286047000.2,N
1541712735.9,286047000.7,N
1541712755.7,286047000.3,N
1541712775.5,286047001.2,N
1541712795.4,286046999.3,N
1541712815.2,286046999.2,N
1541712835.0,286047000.5,N
1541712836.0,286047000.5,N
1541712855.8,286047000.2,N
1541712875.6,286046999.7,N
1541712895.5,286047004.4,Y
1541712915.3,286047004.1,P
1541712935.1,286047003.0,N
1541712955.9,286047001.6,N
1541712975.7,286047004.2,N
1541712995.6,286047000.5,N
1541713015.4,286047000.1,N
1541713035.2,286047000.3,N
1541713055.1,286047000.9,N
1541713056.0,286047000.9,N
1541713075.8,286046999.8,N
1541713095.6,286046998.2,N
1541713115.5,286046999.7,N
1541713135.3,286047001.4,N
1541713155.2,286047001.1,N
1541713175.9,286046998.9,N
1541713195.7,286046999.6,N
1541713215.6,286047001.0,N
1541713235.4,286047000.7,N
1541713255.2,286046998.1,N
1541713275.1,286046999.8,N
1541713276.0,286046999.8,N
1541713295.8,286047002.1,N
1541713315.7,286047001.5,N
1541713335.5,286047000.0,N
1541713355.3,286047002.8,N
1541713375.2,286047002.7,N
1541713395.0,286046998.1,N
1541713395.9,286046998.1,N
1541713415.7,286047000.5,N
1541713435.6,286047001.2,N
1541713455.4,286047002.6,N
1541713475.3,286047002.0,N
1541713495.1,286047002.5,N
1541713496.0,286047002.5,N
1541713515.8,286047002.5,N
1541713535.7,286047001.8,N
1541713555.5,286047000.1,N
1541713575.3,286047001.5,N
1541713595.2,286047000.0,N
1541713615.0,286047000.6,N
1541713615.9,286047000.6,N
1541713635.8,286046998.6,N
1541713655.6,286046998.3,N
1541713675.4,286046998.7,N
1541713695.3,286046999.8,N
1541713715.1,286047000.8,N
1541713735.8,286046998.1,N
1541713755.7,286046996.6,N
1541713775.5,286046997.5,N
1541713795.4,286046996.9,N
1541713815.2,286046999.4,N
1541713835.0,286046996.9,N
1541713835.9,286046996.9,N
1541713855.8,286046997.3,N
1541713875.6,286046997.0,N
1541713895.4,286046997.2,N
1541713915.3,286046999.5,N
1541713935.1,286046996.5,N
1541713955.9,286046997.2,N
1541713975.7,286046999.6,N
1541713995.5,286046995.1,N
1541714015.4,286046995.2,N
1541714035.2,286046994.1,N
1541714055.0,286046994.1,N
1541714055.9,286046994.1,N
1541714075.8,286046991.8,Y
1541714095.6,286046995.3,P
1541714115.5,286046997.4,N
1541714135.3,286046995.1,P
1541714155.1,286046995.7,Y
1541714175.9,286046999.0,P
1541714195.7,286046999.3,N
1541714215.5,286046997.1,N
1541714235.4,286046997.9,N
1541714255.2,286046996.5,Y
1541714275.1,286046999.6,P
1541714276.0,286046999.6,N
1541714295.8,286046996.6,P
1541714315.6,286047000.9,N
1541714335.5,286046999.9,N
1541714355.3,286047000.8,N
1541714375.1,286046996.8,N
1541714395.9,286046997.6,N
